[[{"header":{"parameterUnit":"m.s-1","parameterCategory":1,"la1":30.2992,"la2":30.254,"lo1":-89.0895,"lo2":-89.0443,"dy":0.0025,"dx":0.0025,"nx":19,"ny":19,"refTime":"2026-04-23T21:00:00:Z","depth":0,"parameterNumber":2,"parameterNumberName":"U-component_of_WINDS"},"data":[0,0,0,0.0301,0.0301,0.0302,0.0302,0.0307,0.0307,0,0,0,0,0,0,0,0,0,0,0,0.0304,0.0304,0.0301,0.0301,0.0302,0.0302,0.0307,0.0307,0,0,0,0,0,0,0,0,0,0,0,0.0304,0.0304,0.0304,0.0301,0.0302,0.0302,0.0307,0.0304,0,0,0,0,0,0,0,0,0,0,0.0303,0.0309,0.0304,0.0304,0.0301,0.0302,0.0302,0.0304,0.0304,0.0308,0,0.0313,0,0.031,0.0307,0.0307,0,0,0,0.0298,0.0309,0.0306,0.0304,0.0301,0.0302,0.0301,0.0304,0.0305,0.0308,0.0313,0.0313,0.031,0.0307,0.0307,0.0339,0.0339,0,0,0.0298,0.0306,0.0306,0.0307,0.0308,0.0301,0.0301,0.0304,0.031,0.0313,0.0313,0.031,0.0307,0.0308,0.0339,0.0339,0,0,0,0.03,0.0306,0.0303,0.0306,0.0306,0.0301,0.0301,0.0309,0.0308,0.0313,0.031,0.0308,0.0308,0.0338,0.0339,0.036,0,0,0,0.03,0.0307,0.0303,0.0308,0.0307,0.0308,0.0306,0.0308,0.0308,0.031,0.0308,0.0308,0.0338,0.0339,0.0359,0.0369,0,0,0,0.0302,0.0307,0.0308,0.0308,0.0309,0.0308,0.0307,0.0308,0.0306,0.0307,0.0308,0.0338,0.0338,0.0358,0.0367,0.0379,0,0,0,0.0308,0.0327,0.0309,0.0329,0.0309,0.0321,0.0306,0.0315,0.0319,0.0308,0.0338,0.0339,0.0357,0.0366,0.0378,0.0391,0.0397,0,0,0.0337,0.0331,0.0343,0.0326,0.0344,0.0321,0.0341,0.0337,0.033,0.0336,0.0336,0.0359,0.0367,0.0379,0.0428,0.0433,0,0,0,0.0354,0.0363,0.0366,0.037,0.0367,0.0365,0.0357,0.0355,0.036,0.0335,0.0366,0.0371,0.0377,0.0383,0.0387,0.0392,0.0342,0.0342,0.0342,0.0407,0.0396,0.0414,0.0404,0.0407,0.0398,0.04,0.0395,0.0384,0.0391,0.0393,0.0425,0.0432,0.0435,0.044,0.0399,0.0399,0.0399,0.0399,0.0448,0.0458,0.0441,0.0453,0.0441,0.045,0.0441,0.0432,0.0438,0.0423,0.0428,0.0412,0.044,0.0444,0.0401,0.0401,0.04,0.04,0.04,0.0482,0.0484,0.0482,0.0485,0.0489,0.0477,0.0483,0.0472,0.0461,0.0467,0.0467,0.0467,0.0464,0.0467,0.0468,0.0468,0.0468,0.0468,0.0468,0.0517,0.0514,0.0521,0.0518,0.0519,0.0517,0.0507,0.0507,0.0503,0.0494,0.0494,0.0482,0.0445,0.0436,0.047,0.0469,0.0469,0.0469,0.0469,0.0563,0.0551,0.0562,0.0562,0.0558,0.0561,0.0547,0.0546,0.0544,0.0547,0.0533,0.0508,0.0501,0.0498,0.049,0.0536,0.0536,0.0536,0.0536,0.0592,0.0587,0.0595,0.0596,0.0595,0.0583,0.0594,0.0585,0.0574,0.0572,0.0563,0.0552,0.0549,0.0544,0.054,0.0533,0.0588,0.0588,0.0588,0.0619,0.0613,0.0626,0.0615,0.0611,0.0606,0.0616,0.0616,0.0601,0.059,0.0569,0.0567,0.0549,0.0544,0.0533,0.0526,0.0513,0,0]},{"header":{"parameterUnit":"m.s-1","parameterCategory":1,"la1":30.2992,"la2":30.254,"lo1":-89.0895,"lo2":-89.0443,"dy":0.0025,"dx":0.0025,"nx":19,"ny":19,"refTime":"2026-04-23T21:00:00:Z","depth":0,"parameterNumber":3,"parameterNumberName":"V-component_of_WINDS"},"data":[0,0,0,4.4292,4.4292,4.4267,4.4267,4.4262,4.4262,0,0,0,0,0,0,0,0,0,0,0,4.4316,4.4316,4.4292,4.4292,4.4267,4.4267,4.4262,4.4262,0,0,0,0,0,0,0,0,0,0,0,4.4315,4.4316,4.4317,4.4292,4.4267,4.4267,4.4262,4.4271,0,0,0,0,0,0,0,0,0,0,4.4291,4.4328,4.4316,4.4317,4.4292,4.4267,4.4267,4.4271,4.4271,4.4285,0,4.4302,0,4.4282,4.4264,4.4264,0,0,0,4.428,4.4329,4.4308,4.4317,4.4292,4.4267,4.4275,4.4271,4.427,4.4285,4.4301,4.43,4.4282,4.4264,4.4264,4.4385,4.4386,0,0,4.4282,4.432,4.4308,4.4308,4.4313,4.4276,4.4274,4.427,4.4291,4.4301,4.43,4.4282,4.4264,4.4264,4.4384,4.4386,0,0,0,4.4294,4.4322,4.4299,4.4309,4.4302,4.4275,4.4274,4.4291,4.4281,4.43,4.4282,4.4264,4.4265,4.4383,4.4385,4.4478,0,0,0,4.4294,4.4328,4.4301,4.4324,4.4303,4.4296,4.4296,4.4281,4.4279,4.4282,4.4264,4.4265,4.4382,4.4384,4.4472,4.4515,0,0,0,4.4312,4.433,4.4332,4.4326,4.4317,4.4295,4.4284,4.428,4.4269,4.4264,4.4265,4.4381,4.4383,4.4468,4.4507,4.4559,0,0,0,4.4342,4.4415,4.4334,4.4409,4.4317,4.4353,4.4284,4.4309,4.4315,4.4264,4.4382,4.4385,4.4466,4.4503,4.4554,4.4609,4.4636,0,0,4.4456,4.443,4.4471,4.4398,4.4458,4.4354,4.4427,4.4397,4.4361,4.438,4.4382,4.4474,4.4507,4.4558,4.477,4.4792,0,0,0,4.452,4.455,4.4557,4.4565,4.4543,4.4529,4.4483,4.4472,4.4485,4.4378,4.4505,4.4523,4.4552,4.4576,4.4595,4.4617,4.4397,4.4397,4.4397,4.4736,4.4686,4.475,4.4698,4.4707,4.4659,4.4661,4.4638,4.4586,4.4617,4.4622,4.4757,4.4787,4.48,4.4824,4.4646,4.4647,4.4647,4.4647,4.4897,4.4932,4.486,4.4897,4.4845,4.4875,4.4832,4.4794,4.4815,4.4748,4.4771,4.4702,4.4825,4.4843,4.4654,4.4653,4.4652,4.4651,4.4651,4.5033,4.5041,4.5026,4.5033,4.5043,4.4988,4.5012,4.4963,4.4917,4.4939,4.494,4.4938,4.4931,4.4943,4.4943,4.4944,4.4944,4.4944,4.4945,4.5181,4.5161,4.5186,4.517,4.5169,4.5161,4.5114,4.5112,4.5097,4.5059,4.5059,4.5004,4.4846,4.4808,4.4952,4.495,4.4949,4.4949,4.4948,4.5364,4.5315,4.5355,4.5354,4.5331,4.5345,4.5282,4.5282,4.5272,4.5286,4.5226,4.5117,4.5088,4.5073,4.5041,4.5236,4.5236,4.5236,4.5236,4.5479,4.546,4.5489,4.5491,4.5487,4.5435,4.5482,4.5447,4.5402,4.5394,4.5358,4.5311,4.5298,4.5277,4.5257,4.5227,4.5465,4.5465,4.5465,4.559,4.5567,4.5617,4.5572,4.5551,4.5534,4.5577,4.5582,4.5521,4.5474,4.5386,4.5377,4.53,4.5278,4.5229,4.52,4.5143,0,0]}]]